Regional Weather Roundup
Issued by NWS

Home | Current Version | Previous Version | Graphics & Text | Print | Product List | Glossary On
Versions: 1 2 3 4 5 6 7 8 9 10 11 12 13 14 15 16 17 18 19 20 21 22 23 24 25 26 27 28 29 30 31 32 33 34 35 36 37 38 39 40 41 42 43 44 45 46 47 48 49 50
495
ASUS44 KJAN 270803
RWRMS

MISSISSIPPI HOURLY WEATHER ROUNDUP
NATIONAL WEATHER SERVICE JACKSON MS
200 AM CST FRI FEB 27 2015

NOTE: "FAIR: INDICATES FEW OR NO CLOUDS BELOW 12,000 FEET WITH NO
SIGNIFICANT WEATHER AND/OR OBSTRUCTIONS TO VISIBILITY.

MSZ001>002-007>008-010>013-018>021-025>028-034>036-270900-
NORTHWEST MISSISSIPPI

CITY           SKY/WX    TMP DP  RH WIND       PRES   REMARKS
CLARKSDALE     CLOUDY    28  21  74 N15       30.47S WCI  17
CLEVELAND      CLOUDY    28  22  76 N18G24    30.44S WCI  16
GREENWOOD        N/A    N/A N/A N/A MISG      30.42R
GREENVILLE     CLOUDY    30  21  69 NE15      30.42S WCI  19
OLIVE BRANCH   MOCLDY    23  18  80 N12       30.46R WCI  12
OXFORD         CLOUDY    25  18  74 N9        30.44R WCI  15
TUNICA         CLOUDY    28  19  69 N18       30.48R WCI  16
$$

MSZ003>006-009-014>017-022>024-029>033-037>039-270900-
NORTHEAST MISSISSIPPI

CITY           SKY/WX    TMP DP  RH WIND       PRES   REMARKS
COLUMBUS AFB   CLOUDY    31  24  75 N12       30.37R WCI  22
CORINTH        CLOUDY    28  19  69 N10       30.41R WCI  19
GOLDN TRIANGLE CLOUDY    30  25  80 N14       30.35R WCI  20
STARKVILLE     CLOUDY    32  27  80 N8G16     30.37R WCI  25
TUPELO         CLOUDY    29  20  69 N15       30.40R WCI  18
$$

MSZ040-058-270900-
CENTRAL MISSISSIPPI

CITY           SKY/WX    TMP DP  RH WIND       PRES   REMARKS
JACKSON INTL   CLOUDY    33  27  78 N14       30.37R WCI  23
JACKSON HAWKNS CLOUDY    32  26  78 N8        30.38R WCI  25
MERIDIAN KEY   PTCLDY    32  27  81 N13       30.33R WCI  22
MERIDIAN NAS   CLEAR     30  27  88 NW8       30.34R WCI  22
VICKSBURG      MOCLDY    31  25  78 N15       30.41S WCI  20
$$

MSZ059>079-270900-
SOUTH MISSISSIPPI

CITY           SKY/WX    TMP DP  RH WIND       PRES   REMARKS
BROOKHAVEN     CLOUDY    34  30  86 N9        30.35S WCI  26
HATTIESBURG    CLOUDY    33  29  85 NW6       30.33R WCI  28
MCCOMB         CLOUDY    35  29  78 N9        30.33R WCI  28
NATCHEZ        CLOUDY    34  27  75 N9        30.36F WCI  26
PINE BELT      PTCLDY    32  27  80 N5        30.32R WCI  27
$$

MSZ080>082-270900-
COASTAL MISSISSIPPI

CITY           SKY/WX    TMP DP  RH WIND       PRES   REMARKS
BILOXI         PTCLDY    37  32  84 N13G18    30.30R WCI  28
PASCAGOULA     PTCLDY    37  30  75 N13       30.30R WCI  29
GULFPORT       PTCLDY    35  29  78 N12       30.30R WCI  27
$$



USA.gov is the U.S. government's official web portal to all federal, state and local government web resources and services.